Regional Weather Roundup
Issued by NWS

Home | Current Version | Previous Version | Graphics & Text | Print | Product List | Glossary On
Versions: 1 2 3 4 5 6 7 8 9 10 11 12 13 14 15 16 17 18 19 20 21 22 23 24 25 26 27 28 29 30 31 32 33 34 35 36 37 38 39 40 41 42 43 44 45 46 47 48 49 50
000
ASUS43 KDTX 270210
RWRMI
MICHIGAN HOURLY REGIONAL WEATHER ROUNDUP
NATIONAL WEATHER SERVICE DETROIT/PONTIAC MI
1000 PM EDT TUE AUG 26 2014

NOTE: "FAIR" INDICATES FEW OR NO CLOUDS BELOW 12,000 FEET WITH NO
SIGNIFICANT WEATHER AND/OR OBSTRUCTION TO VISIBILITY.

MIZ047>049-052>055-059>063-066>070-074>076-081>083-270300-
SOUTHEAST LOWER MICHIGAN

CITY           SKY/WX    TMP DP  RH WIND       PRES   REMARKS
ADRIAN         PTCLDY    72  68  87 CALM      30.08S
ALMA           MOCLDY    72  64  77 NW7       30.07R
ANN ARBOR      FOG       67  65  93 CALM      30.07S VSB 1/2
BAD AXE        MOCLDY    65  61  85 N5        30.06R
CARO           PTCLDY    73  72  96 W6        30.04S FOG
DETROIT CITY   MOCLDY    73  68  84 SW6       30.05R
DETROIT        MOCLDY    71  69  93 SW5       30.06S
FLINT          CLOUDY    72  67  84 SW6       30.06S
GROSSE ILE     PTCLDY    72  68  88 CALM      30.05S
HILLSDALE      CLEAR     71  71 100 CALM      30.09S FOG
HOWELL         CLOUDY    69  69  98 CALM      30.08S

CITY           SKY/WX    TMP DP  RH WIND       PRES   REMARKS
JACKSON        MOCLDY    69  68  96 CALM      30.08S
LAMBERTVILLE   PTCLDY    73  68  83 CALM      30.07S
LANSING        CLEAR     70  67  90 W7        30.08R
LAPEER         CLOUDY    70  67  91 W5        30.05S
MASON          CLOUDY    70  68  93 NW6       30.08S
MONROE         PTCLDY    72  68  88 W3        30.05S
MT. CLEMENS    MOCLDY    71  67  89 SW7       30.04R
PONTIAC        MOCLDY    70  67  90 W8        30.06R
PORT HOPE        N/A     67  60  78 N9        30.04S
PORT HURON     CLOUDY    70  68  94 CALM      30.03R
TRI CITIES     MOCLDY    75  66  73 W8        30.06R
TROY           MOCLDY    71  67  87 SW7       30.07R
SAGINAW HB     CLEAR     72  72 100 W6        30.04S
$$
MIZ043>046-050>051-056>058-064>065-071>073-077>080-270300-
SOUTHWEST LOWER MICHIGAN

CITY           SKY/WX    TMP DP  RH WIND       PRES   REMARKS
BATTLE CREEK   CLOUDY    72  68  87 W5        30.09R
BENTON HARBOR  PTCLDY    66  65  96 CALM      30.09R
BIG RAPIDS     CLEAR     64  61  88 N7        30.09R
COLDWATER      PTCLDY    69  68  96 CALM      30.09R FOG
FREMONT          N/A     62  58  85 CALM      30.10R
HOLLAND        CLEAR     65  62  90 CALM      30.10R
GRAND RAPIDS   PTCLDY    68  64  87 NW8       30.09R
IONIA          FAIR      69  66  92 W7        30.07S
KALAMAZOO      CLOUDY    72  68  87 NW8       30.09R
LUDINGTON      CLEAR     59  58  96 CALM      30.11R
MARSHALL       CLOUDY    69  68  99 CALM      30.08S
MOUNT PLEASANT MOCLDY    69  62  76 W5        30.07R
MUSKEGON       PTCLDY    66  59  78 NW5       30.10R
SOUTH HAVEN    CLEAR     67  64  90 CALM      30.09R
$$
MIZ016>042-270300-
NORTHERN LOWER MICHIGAN

CITY           SKY/WX    TMP DP  RH WIND       PRES   REMARKS
ALPENA         CLEAR     60  54  80 N9        30.08R
BEAVER ISLAND  CLEAR     57  56  96 CALM      30.11R FOG
BELLAIRE       CLEAR     56  55  94 CALM      30.09R
CADILLAC       CLEAR     60  58  95 CALM      30.10S
CHARLEVOIX     CLEAR     60  58  92 CALM      30.13R
FRANKFORT      CLEAR     61  57  87 CALM      30.11R
GAYLORD        CLEAR     60  55  83 CALM      30.11R
GRAYLING       CLEAR     60  57  90 CALM      30.11R
HARBOR SPRINGS CLEAR     60  57  90 NW3       30.10R
HOUGHTON LAKE  CLEAR     63  58  83 N5        30.10R
MANISTEE       CLEAR     59  55  88 CALM      30.12R
OSCODA         MOCLDY    65  60  83 NE6       30.05S
PELLSTON       CLEAR     60  54  80 NE7       30.10R
ROGERS CITY    CLEAR     61  55  82 NW8       30.09S
TRAVERSE CITY  CLEAR     62  56  80 CALM      30.09R
$$
MIZ007>008-015-270300-
EASTERN UPPER MICHIGAN

CITY           SKY/WX    TMP DP  RH WIND       PRES   REMARKS
KINROSS        CLEAR     54  54 100 NW6       30.09S
MACKINAC ISLAN CLEAR     56  52  84 N9        30.09R
NEWBERRY       PTCLDY    53  48  84 NW5       30.12R
S. S. MARIE    CLEAR     56  50  80 NW5       30.09R
MUNISING         N/A     59  50  72 N5        30.12R
$$
MIZ004>006-011>014-085-270300-
CENTRAL UPPER MICHIGAN

CITY           SKY/WX    TMP DP  RH WIND       PRES   REMARKS
MANISTIQUE     MOCLDY    56  50  81 N5        30.11R
ESCANABA       CLEAR     61  52  72 N7        30.11R
MENOMINEE      CLEAR     61  55  82 CALM      30.09R
SAWYER-GWINN   CLEAR     55  50  82 NW6       30.13R
$$
MIZ001>003-009>011-084-270300-
WESTERN UPPER MICHIGAN

CITY           SKY/WX    TMP DP  RH WIND       PRES   REMARKS
IRON MOUNTAIN  CLEAR     60  50  69 N7        30.11R
HOUGHTON       CLOUDY    58  48  69 W7        30.12S
COPPER HARBOR    N/A     61  48  62 VRB6      30.10R
$$

ABBREVIATIONS USED IN REMARKS
   TC - TEMPERATURE IN CELSIUS
  WCI - WIND CHILL INDEX
   HX - HEAT INDEX
  VSB - VISIBILITY



USA.gov is the U.S. government's official web portal to all federal, state and local government web resources and services.